| time (UTC) | temp F | wind direction | speed MPH | gust MPH | rain 1hr in | rain 24hr in | rain mn in | humidity % | barometer mb |
| 20260507001029 | 62 | 48 | 5.0 | 12.0 | 0.00 | 0.00 | 0.00 | 55 | 1015.8 |
| 20260507000530 | 62 | 59 | 7.0 | 14.0 | 0.00 | 0.00 | 0.00 | 55 | 1015.9 |
| 20260507000037 | 62 | 61 | 6.0 | 14.0 | 0.00 | 0.00 | 0.00 | 55 | 1015.8 |
| 20260506235525 | 62 | 46 | 6.0 | 11.0 | 0.00 | 0.00 | 0.00 | 53 | 1015.7 |
| 20260506235026 | 63 | 46 | 5.0 | 13.0 | 0.00 | 0.00 | 0.00 | 53 | 1015.6 |
| 20260506234539 | 62 | 28 | 7.0 | 13.0 | 0.00 | 0.00 | 0.00 | 52 | 1015.6 |
| 20260506234028 | 63 | 65 | 6.0 | 13.0 | 0.00 | 0.00 | 0.00 | 53 | 1015.5 |
| 20260506233528 | 63 | 31 | 7.0 | 13.0 | 0.00 | 0.00 | 0.00 | 53 | 1015.5 |
| 20260506233045 | 63 | 53 | 8.0 | 13.0 | 0.00 | 0.00 | 0.00 | 53 | 1015.5 |
| 20260506232529 | 63 | 53 | 5.0 | 15.0 | 0.00 | 0.00 | 0.00 | 52 | 1015.4 |
| 20260506232027 | 63 | 44 | 7.0 | 15.0 | 0.00 | 0.00 | 0.00 | 52 | 1015.4 |
| 20260506231541 | 63 | 81 | 7.0 | 13.0 | 0.00 | 0.00 | 0.00 | 52 | 1015.3 |
| 20260506231028 | 63 | 50 | 6.0 | 13.0 | 0.00 | 0.00 | 0.00 | 53 | 1015.4 |
| 20260506230527 | 63 | 63 | 6.0 | 11.0 | 0.00 | 0.00 | 0.00 | 51 | 1015.4 |
| 20260506230039 | 63 | 40 | 5.0 | 12.0 | 0.00 | 0.00 | 0.00 | 51 | 1015.5 |
| 20260506225527 | 63 | 36 | 6.0 | 12.0 | 0.00 | 0.00 | 0.00 | 51 | 1015.4 |
| 20260506225029 | 63 | 43 | 8.0 | 12.0 | 0.00 | 0.00 | 0.00 | 52 | 1015.4 |
| 20260506224537 | 63 | 49 | 6.0 | 14.0 | 0.00 | 0.00 | 0.00 | 52 | 1015.3 |
| 20260506224027 | 63 | 55 | 8.0 | 16.0 | 0.00 | 0.00 | 0.00 | 51 | 1015.2 |
| 20260506223527 | 63 | 40 | 8.0 | 16.0 | 0.00 | 0.00 | 0.00 | 51 | 1015.2 |
| 20260506223053 | 64 | 51 | 6.0 | 15.0 | 0.00 | 0.00 | 0.00 | 51 | 1015.1 |
| 20260506222528 | 64 | 36 | 9.0 | 15.0 | 0.00 | 0.00 | 0.00 | 51 | 1015.1 |
| 20260506222028 | 64 | 17 | 6.0 | 15.0 | 0.00 | 0.00 | 0.00 | 51 | 1015.0 |
| 20260506221541 | 63 | 55 | 6.0 | 17.0 | 0.00 | 0.00 | 0.00 | 52 | 1015.1 |
| 20260506221028 | 63 | 19 | 10.0 | 17.0 | 0.00 | 0.00 | 0.00 | 52 | 1015.1 |
| 20260506220528 | 63 | 55 | 4.0 | 18.0 | 0.00 | 0.00 | 0.00 | 53 | 1015.0 |
| 20260506220043 | 63 | 37 | 10.0 | 18.0 | 0.00 | 0.00 | 0.00 | 52 | 1015.0 |
| 20260506215527 | 63 | 36 | 9.0 | 18.0 | 0.00 | 0.00 | 0.00 | 52 | 1015.0 |
| 20260506215027 | 62 | 65 | 6.0 | 18.0 | 0.00 | 0.00 | 0.00 | 54 | 1015.0 |
| 20260506214541 | 62 | 46 | 10.0 | 18.0 | 0.00 | 0.00 | 0.00 | 54 | 1015.1 |
| 20260506214028 | 62 | 69 | 10.0 | 17.0 | 0.00 | 0.00 | 0.00 | 54 | 1015.2 |
| 20260506213527 | 62 | 40 | 11.0 | 18.0 | 0.00 | 0.00 | 0.00 | 53 | 1015.1 |
| 20260506213039 | 62 | 42 | 10.0 | 18.0 | 0.00 | 0.00 | 0.00 | 53 | 1015.1 |
| 20260506212527 | 63 | 78 | 11.0 | 18.0 | 0.00 | 0.00 | 0.00 | 52 | 1015.1 |
| 20260506212027 | 64 | 41 | 8.0 | 17.0 | 0.00 | 0.00 | 0.00 | 52 | 1015.1 |
| 20260506211540 | 63 | 24 | 10.0 | 16.0 | 0.00 | 0.00 | 0.00 | 52 | 1015.1 |
| 20260506211028 | 64 | 47 | 10.0 | 16.0 | 0.00 | 0.00 | 0.00 | 52 | 1015.1 |
| 20260506210527 | 64 | 11 | 11.0 | 16.0 | 0.00 | 0.00 | 0.00 | 50 | 1015.1 |
| 20260506210040 | 64 | 44 | 8.0 | 16.0 | 0.00 | 0.00 | 0.00 | 51 | 1015.1 |
| 20260506205527 | 64 | 14 | 9.0 | 19.0 | 0.00 | 0.00 | 0.00 | 52 | 1015.1 |
| 20260506205028 | 63 | 29 | 11.0 | 19.0 | 0.00 | 0.00 | 0.00 | 52 | 1015.1 |
| 20260506204540 | 63 | 20 | 11.0 | 21.0 | 0.00 | 0.00 | 0.00 | 52 | 1015.3 |
| 20260506204027 | 63 | 24 | 10.0 | 21.0 | 0.00 | 0.00 | 0.00 | 51 | 1015.3 |
| 20260506203528 | 64 | 34 | 11.0 | 21.0 | 0.00 | 0.00 | 0.00 | 51 | 1015.2 |
| 20260506203044 | 64 | 360 | 9.0 | 20.0 | 0.00 | 0.00 | 0.00 | 51 | 1015.2 |
| 20260506202528 | 63 | 33 | 10.0 | 19.0 | 0.00 | 0.00 | 0.00 | 51 | 1015.4 |
| 20260506202028 | 63 | 9 | 12.0 | 19.0 | 0.00 | 0.00 | 0.00 | 51 | 1015.4 |
| 20260506201537 | 64 | 19 | 10.0 | 19.0 | 0.00 | 0.00 | 0.00 | 50 | 1015.4 |
| 20260506201028 | 65 | 17 | 10.0 | 17.0 | 0.00 | 0.00 | 0.00 | 50 | 1015.3 |
| 20260506200527 | 65 | 343 | 8.0 | 20.0 | 0.00 | 0.00 | 0.00 | 51 | 1015.2 |
| 20260506200054 | 64 | 360 | 10.0 | 20.0 | 0.00 | 0.00 | 0.00 | 50 | 1015.2 |
| 20260506195528 | 63 | 22 | 10.0 | 19.0 | 0.00 | 0.00 | 0.00 | 52 | 1015.2 |
| 20260506195030 | 63 | 74 | 11.0 | 18.0 | 0.00 | 0.00 | 0.00 | 51 | 1015.4 |
| 20260506194542 | 63 | 36 | 12.0 | 18.0 | 0.00 | 0.00 | 0.00 | 51 | 1015.3 |
| 20260506194028 | 63 | 29 | 12.0 | 17.0 | 0.00 | 0.00 | 0.00 | 50 | 1015.3 |
| 20260506193526 | 64 | 52 | 6.0 | 19.0 | 0.00 | 0.00 | 0.00 | 52 | 1015.1 |
| 20260506193044 | 63 | 53 | 9.0 | 19.0 | 0.00 | 0.00 | 0.00 | 51 | 1015.2 |
| 20260506192528 | 62 | 49 | 9.0 | 19.0 | 0.00 | 0.00 | 0.00 | 53 | 1015.4 |
| 20260506192028 | 62 | 20 | 13.0 | 19.0 | 0.00 | 0.00 | 0.00 | 53 | 1015.4 |
| 20260506191538 | 62 | 53 | 11.0 | 19.0 | 0.00 | 0.00 | 0.00 | 53 | 1015.3 |
| 20260506191028 | 62 | 42 | 8.0 | 18.0 | 0.00 | 0.00 | 0.00 | 54 | 1015.4 |
| 20260506190528 | 61 | 51 | 10.0 | 17.0 | 0.00 | 0.00 | 0.00 | 54 | 1015.5 |
| 20260506190037 | 61 | 24 | 9.0 | 19.0 | 0.00 | 0.00 | 0.00 | 54 | 1015.7 |
| 20260506185527 | 61 | 44 | 9.0 | 19.0 | 0.00 | 0.00 | 0.00 | 56 | 1015.6 |
| 20260506185027 | 61 | 65 | 11.0 | 19.0 | 0.00 | 0.00 | 0.00 | 55 | 1015.7 |
| 20260506184546 | 61 | 47 | 11.0 | 18.0 | 0.00 | 0.00 | 0.00 | 55 | 1015.7 |
| 20260506184027 | 61 | 51 | 9.0 | 17.0 | 0.00 | 0.00 | 0.00 | 55 | 1015.7 |
| 20260506183527 | 61 | 54 | 10.0 | 16.0 | 0.00 | 0.00 | 0.00 | 56 | 1015.8 |
| 20260506183041 | 61 | 80 | 9.0 | 17.0 | 0.00 | 0.00 | 0.00 | 54 | 1015.8 |
| 20260506182526 | 60 | 5 | 10.0 | 17.0 | 0.00 | 0.00 | 0.00 | 56 | 1015.9 |
| 20260506182026 | 60 | 57 | 8.0 | 16.0 | 0.00 | 0.00 | 0.00 | 57 | 1016.0 |
| 20260506181601 | 59 | 80 | 9.0 | 16.0 | 0.00 | 0.00 | 0.00 | 58 | 1016.0 |
| 20260506181027 | 60 | 82 | 9.0 | 17.0 | 0.00 | 0.00 | 0.00 | 58 | 1016.1 |
| 20260506180529 | 59 | 74 | 9.0 | 17.0 | 0.00 | 0.00 | 0.00 | 58 | 1016.3 |
| 20260506180046 | 59 | 65 | 8.0 | 20.0 | 0.00 | 0.00 | 0.00 | 58 | 1016.3 |
| 20260506175529 | 59 | 60 | 11.0 | 20.0 | 0.00 | 0.00 | 0.00 | 58 | 1016.3 |
| 20260506175026 | 59 | 105 | 13.0 | 20.0 | 0.00 | 0.00 | 0.00 | 58 | 1016.4 |
| 20260506174537 | 58 | 44 | 9.0 | 20.0 | 0.00 | 0.00 | 0.00 | 59 | 1016.4 |
| 20260506174026 | 58 | 113 | 11.0 | 19.0 | 0.00 | 0.00 | 0.00 | 58 | 1016.7 |
| 20260506173525 | 58 | 42 | 10.0 | 19.0 | 0.00 | 0.00 | 0.00 | 59 | 1016.8 |
| 20260506173045 | 58 | 82 | 12.0 | 21.0 | 0.00 | 0.00 | 0.00 | 59 | 1016.7 |
| 20260506172526 | 57 | 74 | 13.0 | 21.0 | 0.00 | 0.00 | 0.00 | 59 | 1016.8 |
| 20260506172030 | 57 | 61 | 12.0 | 21.0 | 0.00 | 0.00 | 0.00 | 59 | 1016.7 |
| 20260506171550 | 57 | 66 | 13.0 | 21.0 | 0.00 | 0.00 | 0.00 | 60 | 1016.7 |
| 20260506171027 | 57 | 51 | 10.0 | 18.0 | 0.00 | 0.00 | 0.00 | 61 | 1016.8 |
| 20260506170526 | 56 | 110 | 9.0 | 18.0 | 0.00 | 0.00 | 0.00 | 62 | 1016.8 |
| 20260506170041 | 56 | 79 | 10.0 | 17.0 | 0.00 | 0.00 | 0.00 | 61 | 1017.0 |
| 20260506165527 | 57 | 40 | 8.0 | 17.0 | 0.00 | 0.00 | 0.00 | 61 | 1016.9 |
| 20260506165027 | 57 | 51 | 9.0 | 18.0 | 0.00 | 0.00 | 0.00 | 62 | 1016.8 |
| 20260506164539 | 57 | 84 | 11.0 | 18.0 | 0.00 | 0.00 | 0.00 | 65 | 1017.0 |
| 20260506164026 | 56 | 59 | 10.0 | 16.0 | 0.00 | 0.00 | 0.00 | 64 | 1016.9 |
| 20260506163526 | 55 | 22 | 7.0 | 17.0 | 0.00 | 0.00 | 0.00 | 66 | 1017.0 |
| 20260506163046 | 55 | 33 | 10.0 | 18.0 | 0.00 | 0.00 | 0.00 | 65 | 1017.1 |
| 20260506162526 | 55 | 35 | 10.0 | 18.0 | 0.00 | 0.00 | 0.00 | 65 | 1017.2 |
| 20260506162026 | 55 | 57 | 8.0 | 19.0 | 0.00 | 0.00 | 0.00 | 66 | 1017.3 |
| 20260506161552 | 54 | 51 | 11.0 | 20.0 | 0.00 | 0.00 | 0.00 | 66 | 1017.1 |
| 20260506161026 | 54 | 74 | 11.0 | 22.0 | 0.00 | 0.00 | 0.00 | 67 | 1017.2 |
| 20260506160531 | 53 | 16 | 10.0 | 22.0 | 0.00 | 0.00 | 0.00 | 68 | 1017.2 |
| 20260506160043 | 53 | 51 | 12.0 | 19.0 | 0.00 | 0.00 | 0.00 | 68 | 1017.2 |
| 20260506155527 | 53 | 67 | 8.0 | 19.0 | 0.00 | 0.00 | 0.00 | 69 | 1017.0 |
| 20260506155029 | 52 | 54 | 10.0 | 19.0 | 0.00 | 0.00 | 0.00 | 69 | 1017.0 |
| 20260506154542 | 52 | 56 | 12.0 | 19.0 | 0.00 | 0.00 | 0.00 | 69 | 1017.0 |
| 20260506154028 | 52 | 59 | 11.0 | 20.0 | 0.00 | 0.00 | 0.00 | 70 | 1016.8 |
| 20260506153528 | 52 | 55 | 12.0 | 22.0 | 0.00 | 0.00 | 0.00 | 69 | 1016.9 |
| 20260506153042 | 52 | 88 | 13.0 | 22.0 | 0.00 | 0.00 | 0.00 | 69 | 1016.9 |
| 20260506152527 | 52 | 63 | 12.0 | 20.0 | 0.00 | 0.00 | 0.00 | 69 | 1016.7 |
| 20260506152029 | 52 | 67 | 11.0 | 21.0 | 0.00 | 0.00 | 0.00 | 70 | 1016.6 |
| 20260506151538 | 52 | 80 | 13.0 | 21.0 | 0.00 | 0.00 | 0.00 | 70 | 1016.5 |
| 20260506151027 | 52 | 59 | 10.0 | 20.0 | 0.00 | 0.00 | 0.00 | 71 | 1016.5 |
| 20260506150527 | 51 | 94 | 11.0 | 22.0 | 0.00 | 0.00 | 0.00 | 71 | 1016.6 |
| 20260506150042 | 51 | 61 | 12.0 | 22.0 | 0.00 | 0.00 | 0.00 | 71 | 1016.3 |
| 20260506145529 | 51 | 26 | 12.0 | 22.0 | 0.00 | 0.00 | 0.00 | 72 | 1016.3 |
| 20260506145028 | 51 | 53 | 13.0 | 23.0 | 0.00 | 0.00 | 0.00 | 72 | 1016.4 |
| 20260506144538 | 51 | 26 | 14.0 | 23.0 | 0.00 | 0.00 | 0.00 | 73 | 1016.2 |
| 20260506144030 | 51 | 30 | 14.0 | 23.0 | 0.00 | 0.00 | 0.00 | 74 | 1015.9 |
| 20260506143530 | 50 | 30 | 12.0 | 22.0 | 0.00 | 0.00 | 0.00 | 74 | 1015.8 |
| 20260506143039 | 50 | 41 | 14.0 | 22.0 | 0.00 | 0.00 | 0.00 | 74 | 1015.5 |
| 20260506142528 | 50 | 16 | 13.0 | 23.0 | 0.00 | 0.00 | 0.00 | 75 | 1015.5 |
| 20260506142027 | 50 | 22 | 13.0 | 23.0 | 0.00 | 0.00 | 0.00 | 75 | 1015.4 |
| 20260506141537 | 50 | 5 | 12.0 | 24.0 | 0.00 | 0.00 | 0.00 | 75 | 1015.8 |
| 20260506141027 | 49 | 36 | 13.0 | 24.0 | 0.00 | 0.00 | 0.00 | 75 | 1015.7 |
| 20260506140527 | 49 | 66 | 11.0 | 23.0 | 0.00 | 0.00 | 0.00 | 76 | 1015.8 |
| 20260506140043 | 49 | 47 | 14.0 | 21.0 | 0.00 | 0.00 | 0.00 | 76 | 1015.8 |
| 20260506135535 | 49 | 36 | 13.0 | 21.0 | 0.00 | 0.00 | 0.00 | 76 | 1015.8 |
| 20260506135029 | 49 | 21 | 11.0 | 22.0 | 0.00 | 0.00 | 0.00 | 76 | 1015.8 |
| 20260506134609 | 49 | 27 | 10.0 | 22.0 | 0.00 | 0.00 | 0.00 | 77 | 1015.9 |
| 20260506134027 | 49 | 46 | 14.0 | 22.0 | 0.00 | 0.00 | 0.00 | 77 | 1015.7 |
| 20260506133528 | 49 | 28 | 10.0 | 18.0 | 0.00 | 0.00 | 0.00 | 77 | 1015.8 |
| 20260506133040 | 49 | 42 | 8.0 | 19.0 | 0.00 | 0.00 | 0.00 | 77 | 1016.0 |
| 20260506132528 | 49 | 33 | 13.0 | 19.0 | 0.00 | 0.00 | 0.00 | 77 | 1016.2 |
| 20260506132028 | 49 | 24 | 9.0 | 19.0 | 0.00 | 0.00 | 0.00 | 77 | 1016.2 |
| 20260506131553 | 48 | 19 | 11.0 | 20.0 | 0.00 | 0.00 | 0.00 | 77 | 1016.1 |
| 20260506131030 | 48 | 22 | 11.0 | 20.0 | 0.00 | 0.00 | 0.00 | 77 | 1016.0 |
| 20260506130532 | 48 | 5 | 12.0 | 21.0 | 0.00 | 0.00 | 0.00 | 77 | 1015.9 |
| 20260506130038 | 48 | 352 | 10.0 | 21.0 | 0.00 | 0.00 | 0.00 | 77 | 1015.7 |
| 20260506125530 | 48 | 5 | 10.0 | 20.0 | 0.00 | 0.00 | 0.00 | 77 | 1015.8 |
| 20260506125029 | 48 | 22 | 10.0 | 17.0 | 0.00 | 0.00 | 0.00 | 77 | 1015.5 |
| 20260506124538 | 48 | 11 | 9.0 | 19.0 | 0.00 | 0.00 | 0.00 | 77 | 1015.4 |
| 20260506124030 | 48 | 55 | 9.0 | 19.0 | 0.00 | 0.00 | 0.00 | 76 | 1015.1 |
| 20260506123528 | 48 | 18 | 11.0 | 19.0 | 0.00 | 0.00 | 0.00 | 76 | 1015.2 |
| 20260506123043 | 48 | 25 | 9.0 | 16.0 | 0.00 | 0.00 | 0.00 | 76 | 1015.2 |
| 20260506122527 | 48 | 32 | 9.0 | 14.0 | 0.00 | 0.00 | 0.00 | 76 | 1014.9 |
| 20260506122028 | 48 | 36 | 6.0 | 17.0 | 0.00 | 0.00 | 0.00 | 76 | 1014.9 |
| 20260506121541 | 48 | 352 | 9.0 | 17.0 | 0.00 | 0.00 | 0.00 | 76 | 1014.7 |
| 20260506121029 | 48 | 40 | 10.0 | 16.0 | 0.00 | 0.00 | 0.00 | 76 | 1014.7 |
| 20260506120530 | 48 | 29 | 8.0 | 18.0 | 0.00 | 0.00 | 0.00 | 76 | 1014.8 |
| 20260506120040 | 48 | 34 | 11.0 | 18.0 | 0.00 | 0.00 | 0.00 | 76 | 1014.7 |
| 20260506115528 | 48 | 11 | 9.0 | 16.0 | 0.00 | 0.00 | 0.00 | 76 | 1014.7 |
| 20260506115029 | 48 | 28 | 8.0 | 15.0 | 0.00 | 0.00 | 0.00 | 76 | 1014.5 |
| 20260506114545 | 48 | 11 | 8.0 | 15.0 | 0.00 | 0.00 | 0.00 | 76 | 1014.5 |
| 20260506114027 | 48 | 12 | 7.0 | 14.0 | 0.00 | 0.00 | 0.00 | 76 | 1014.5 |
| 20260506113527 | 48 | 19 | 7.0 | 16.0 | 0.00 | 0.00 | 0.00 | 76 | 1014.4 |
| 20260506113040 | 48 | 28 | 8.0 | 20.0 | 0.00 | 0.00 | 0.00 | 76 | 1014.3 |
| 20260506112527 | 48 | 21 | 10.0 | 20.0 | 0.00 | 0.00 | 0.00 | 76 | 1014.0 |
| 20260506112027 | 48 | 34 | 9.0 | 18.0 | 0.00 | 0.00 | 0.00 | 76 | 1014.0 |
| 20260506111552 | 48 | 36 | 11.0 | 18.0 | 0.00 | 0.00 | 0.00 | 76 | 1014.0 |
| 20260506111030 | 48 | 24 | 9.0 | 20.0 | 0.00 | 0.00 | 0.00 | 76 | 1014.1 |
| 20260506110528 | 48 | 352 | 7.0 | 20.0 | 0.00 | 0.00 | 0.00 | 75 | 1014.3 |
| 20260506110041 | 48 | 28 | 9.0 | 18.0 | 0.00 | 0.00 | 0.00 | 75 | 1014.2 |
| 20260506105530 | 48 | 348 | 9.0 | 18.0 | 0.00 | 0.00 | 0.00 | 75 | 1014.3 |
| 20260506105030 | 48 | 5 | 10.0 | 18.0 | 0.00 | 0.00 | 0.00 | 75 | 1014.6 |
| 20260506104541 | 48 | 332 | 8.0 | 18.0 | 0.00 | 0.00 | 0.00 | 74 | 1014.5 |
| 20260506104027 | 48 | 15 | 9.0 | 18.0 | 0.00 | 0.00 | 0.00 | 74 | 1014.7 |
| 20260506103528 | 48 | 345 | 10.0 | 17.0 | 0.00 | 0.00 | 0.00 | 74 | 1014.4 |
| 20260506103038 | 48 | 35 | 9.0 | 16.0 | 0.00 | 0.00 | 0.00 | 73 | 1014.1 |
| 20260506102530 | 49 | 352 | 8.0 | 16.0 | 0.00 | 0.00 | 0.00 | 73 | 1014.2 |
| 20260506102028 | 49 | 19 | 10.0 | 19.0 | 0.00 | 0.00 | 0.00 | 72 | 1014.3 |
| 20260506101537 | 49 | 9 | 9.0 | 19.0 | 0.00 | 0.00 | 0.00 | 72 | 1014.4 |
| 20260506101027 | 49 | 10 | 10.0 | 19.0 | 0.00 | 0.00 | 0.00 | 72 | 1014.3 |
| 20260506100529 | 49 | 360 | 9.0 | 17.0 | 0.00 | 0.00 | 0.00 | 72 | 1014.4 |
| 20260506100038 | 49 | 17 | 8.0 | 19.0 | 0.00 | 0.00 | 0.00 | 72 | 1014.4 |
| 20260506095531 | 49 | 38 | 10.0 | 19.0 | 0.00 | 0.00 | 0.00 | 71 | 1014.2 |
| 20260506095029 | 49 | 5 | 8.0 | 14.0 | 0.00 | 0.00 | 0.00 | 71 | 1014.2 |
| 20260506094543 | 49 | 28 | 8.0 | 18.0 | 0.00 | 0.00 | 0.00 | 71 | 1014.1 |
| 20260506094032 | 49 | 11 | 8.0 | 18.0 | 0.00 | 0.00 | 0.00 | 71 | 1014.0 |
| 20260506093527 | 49 | 17 | 9.0 | 18.0 | 0.00 | 0.00 | 0.00 | 71 | 1014.0 |
| 20260506093043 | 49 | 30 | 10.0 | 17.0 | 0.00 | 0.00 | 0.00 | 72 | 1013.9 |
| 20260506092529 | 49 | 23 | 8.0 | 17.0 | 0.00 | 0.00 | 0.00 | 72 | 1013.9 |
| 20260506092027 | 49 | 14 | 10.0 | 16.0 | 0.00 | 0.00 | 0.00 | 72 | 1014.1 |
| 20260506091540 | 49 | 33 | 7.0 | 13.0 | 0.00 | 0.00 | 0.00 | 72 | 1014.0 |
| 20260506091027 | 49 | 346 | 7.0 | 19.0 | 0.00 | 0.00 | 0.00 | 72 | 1013.8 |
| 20260506090527 | 49 | 33 | 11.0 | 20.0 | 0.00 | 0.00 | 0.00 | 72 | 1013.8 |
| 20260506090040 | 49 | 32 | 11.0 | 20.0 | 0.00 | 0.00 | 0.00 | 72 | 1013.7 |
| 20260506085529 | 49 | 15 | 11.0 | 19.0 | 0.00 | 0.00 | 0.00 | 72 | 1013.7 |
| 20260506085027 | 49 | 34 | 8.0 | 14.0 | 0.00 | 0.00 | 0.00 | 73 | 1013.6 |
| 20260506084537 | 49 | 14 | 7.0 | 14.0 | 0.00 | 0.00 | 0.00 | 73 | 1013.5 |
| 20260506084027 | 49 | 9 | 9.0 | 14.0 | 0.00 | 0.00 | 0.00 | 72 | 1013.5 |
| 20260506083530 | 49 | 355 | 6.0 | 15.0 | 0.00 | 0.00 | 0.00 | 72 | 1013.5 |
| 20260506083037 | 49 | 360 | 6.0 | 18.0 | 0.00 | 0.00 | 0.00 | 72 | 1013.3 |
| 20260506082530 | 49 | 27 | 9.0 | 18.0 | 0.00 | 0.00 | 0.00 | 72 | 1013.3 |
| 20260506082033 | 49 | 12 | 11.0 | 18.0 | 0.00 | 0.00 | 0.00 | 72 | 1013.0 |
| 20260506081548 | 49 | 20 | 10.0 | 17.0 | 0.00 | 0.00 | 0.00 | 72 | 1012.7 |
| 20260506081030 | 49 | 28 | 10.0 | 18.0 | 0.00 | 0.00 | 0.00 | 72 | 1012.6 |
| 20260506080529 | 49 | 44 | 8.0 | 18.0 | 0.00 | 0.00 | 0.00 | 72 | 1012.1 |
| 20260506073528 | 49 | 51 | 9.0 | 21.0 | 0.00 | 0.00 | 0.00 | 71 | 1011.9 |
| 20260506073038 | 49 | 32 | 8.0 | 21.0 | 0.00 | 0.00 | 0.00 | 71 | 1011.8 |
| 20260506072526 | 49 | 29 | 12.0 | 21.0 | 0.00 | 0.00 | 0.00 | 71 | 1011.6 |
| 20260506072031 | 49 | 352 | 9.0 | 16.0 | 0.00 | 0.00 | 0.00 | 71 | 1011.7 |
| 20260506071538 | 49 | 5 | 7.0 | 16.0 | 0.00 | 0.00 | 0.00 | 71 | 1011.8 |
| 20260506071029 | 49 | 22 | 9.0 | 16.0 | 0.00 | 0.00 | 0.00 | 71 | 1012.0 |
| 20260506070528 | 49 | 57 | 9.0 | 17.0 | 0.00 | 0.00 | 0.00 | 71 | 1012.2 |
| 20260506062028 | 49 | 49 | 10.0 | 18.0 | 0.00 | 0.00 | 0.00 | 73 | 1012.2 |
| 20260506061541 | 49 | 69 | 10.0 | 18.0 | 0.00 | 0.00 | 0.00 | 74 | 1012.2 |
| 20260506061030 | 49 | 32 | 8.0 | 17.0 | 0.00 | 0.00 | 0.00 | 74 | 1012.2 |
| 20260506060528 | 49 | 17 | 8.0 | 17.0 | 0.00 | 0.00 | 0.00 | 75 | 1012.3 |
| 20260506051027 | 49 | 38 | 9.0 | 17.0 | 0.00 | 0.00 | 0.00 | 78 | 1011.9 |
| 20260506050527 | 49 | 28 | 8.0 | 17.0 | 0.00 | 0.00 | 0.00 | 79 | 1012.1 |
| 20260506045027 | 49 | 51 | 8.0 | 24.0 | 0.00 | 0.00 | 0.00 | 79 | 1012.1 |
| 20260506044543 | 49 | 17 | 12.0 | 24.0 | 0.00 | 0.00 | 0.00 | 79 | 1012.1 |
| 20260506044029 | 49 | 36 | 9.0 | 17.0 | 0.00 | 0.00 | 0.00 | 80 | 1012.1 |
| 20260506043529 | 49 | 28 | 9.0 | 20.0 | 0.00 | 0.00 | 0.00 | 80 | 1012.2 |
| 20260506043042 | 49 | 24 | 12.0 | 20.0 | 0.00 | 0.00 | 0.00 | 80 | 1012.0 |
| 20260506042529 | 49 | 34 | 7.0 | 20.0 | 0.00 | 0.00 | 0.00 | 81 | 1012.2 |
| 20260506042029 | 49 | 46 | 11.0 | 20.0 | 0.00 | 0.00 | 0.00 | 81 | 1012.3 |
| 20260506041540 | 49 | 30 | 10.0 | 20.0 | 0.00 | 0.00 | 0.00 | 81 | 1012.2 |
| 20260506041029 | 49 | 13 | 9.0 | 17.0 | 0.00 | 0.00 | 0.00 | 81 | 1012.2 |
| 20260506040527 | 49 | 55 | 9.0 | 19.0 | 0.00 | 0.00 | 0.00 | 81 | 1012.4 |
| 20260506040040 | 49 | 38 | 9.0 | 19.0 | 0.00 | 0.00 | 0.00 | 81 | 1012.3 |
| 20260506035528 | 49 | 43 | 10.0 | 19.0 | 0.00 | 0.00 | 0.00 | 82 | 1012.0 |
| 20260506035028 | 49 | 346 | 8.0 | 14.0 | 0.00 | 0.00 | 0.00 | 82 | 1012.0 |
| 20260506034541 | 49 | 38 | 7.0 | 15.0 | 0.00 | 0.00 | 0.00 | 82 | 1012.0 |
| 20260506034028 | 49 | 43 | 7.0 | 16.0 | 0.00 | 0.00 | 0.00 | 82 | 1012.0 |
| 20260506033531 | 49 | 26 | 10.0 | 16.0 | 0.00 | 0.00 | 0.00 | 81 | 1012.0 |
| 20260506033044 | 49 | 34 | 9.0 | 16.0 | 0.00 | 0.00 | 0.00 | 81 | 1012.0 |
| 20260506032528 | 49 | 5 | 9.0 | 16.0 | 0.00 | 0.00 | 0.00 | 81 | 1011.9 |
| 20260506032027 | 49 | 9 | 10.0 | 17.0 | 0.00 | 0.00 | 0.00 | 80 | 1011.8 |
| 20260506031541 | 49 | 49 | 9.0 | 20.0 | 0.00 | 0.00 | 0.00 | 80 | 1011.8 |
| 20260506031032 | 49 | 27 | 11.0 | 20.0 | 0.00 | 0.00 | 0.00 | 80 | 1011.4 |
| 20260506030529 | 49 | 45 | 6.0 | 17.0 | 0.00 | 0.00 | 0.00 | 80 | 1011.3 |
| 20260506030039 | 49 | 25 | 10.0 | 19.0 | 0.00 | 0.00 | 0.00 | 80 | 1011.4 |
| 20260506025532 | 49 | 41 | 11.0 | 19.0 | 0.00 | 0.00 | 0.00 | 79 | 1011.4 |
| 20260506025027 | 49 | 44 | 10.0 | 18.0 | 0.00 | 0.00 | 0.00 | 79 | 1011.5 |
| 20260506024547 | 49 | 5 | 8.0 | 18.0 | 0.00 | 0.00 | 0.00 | 79 | 1011.3 |
| 20260506024029 | 49 | 17 | 11.0 | 18.0 | 0.00 | 0.00 | 0.00 | 79 | 1011.1 |
| 20260506023527 | 49 | 31 | 11.0 | 22.0 | 0.00 | 0.00 | 0.00 | 79 | 1010.9 |
| 20260506023038 | 49 | 22 | 12.0 | 22.0 | 0.00 | 0.00 | 0.00 | 79 | 1010.7 |
| 20260506022532 | 50 | 350 | 13.0 | 20.0 | 0.00 | 0.00 | 0.00 | 80 | 1010.7 |
| 20260506022027 | 50 | 42 | 9.0 | 15.0 | 0.00 | 0.00 | 0.00 | 80 | 1010.7 |
| 20260506021540 | 50 | 32 | 8.0 | 18.0 | 0.00 | 0.00 | 0.00 | 80 | 1010.9 |
| 20260506021030 | 50 | 19 | 9.0 | 19.0 | 0.00 | 0.00 | 0.00 | 80 | 1010.6 |
| 20260506020529 | 50 | 20 | 12.0 | 19.0 | 0.00 | 0.00 | 0.00 | 80 | 1010.5 |
| 20260506020040 | 50 | 30 | 11.0 | 22.0 | 0.00 | 0.00 | 0.00 | 79 | 1010.5 |
| 20260506015528 | 50 | 22 | 13.0 | 22.0 | 0.00 | 0.00 | 0.00 | 79 | 1010.6 |
| 20260506015030 | 50 | 36 | 13.0 | 21.0 | 0.00 | 0.00 | 0.00 | 79 | 1010.5 |
| 20260506014538 | 50 | 341 | 13.0 | 21.0 | 0.00 | 0.00 | 0.00 | 79 | 1010.2 |
| 20260506014027 | 50 | 23 | 12.0 | 20.0 | 0.00 | 0.00 | 0.00 | 79 | 1010.3 |
| 20260506013527 | 50 | 26 | 14.0 | 20.0 | 0.00 | 0.00 | 0.00 | 79 | 1010.5 |
| 20260506013038 | 50 | 352 | 10.0 | 19.0 | 0.00 | 0.00 | 0.00 | 78 | 1010.4 |
| 20260506012527 | 50 | 35 | 8.0 | 19.0 | 0.00 | 0.00 | 0.00 | 78 | 1010.3 |
| 20260506012028 | 50 | 31 | 11.0 | 22.0 | 0.00 | 0.00 | 0.00 | 78 | 1010.1 |
| 20260506011602 | 50 | 38 | 12.0 | 22.0 | 0.00 | 0.00 | 0.00 | 77 | 1010.1 |
| 20260506011027 | 51 | 12 | 13.0 | 22.0 | 0.00 | 0.00 | 0.00 | 76 | 1009.9 |
| 20260506010530 | 51 | 21 | 9.0 | 17.0 | 0.00 | 0.00 | 0.00 | 76 | 1010.0 |
| 20260506010041 | 51 | 19 | 9.0 | 17.0 | 0.00 | 0.00 | 0.00 | 76 | 1009.9 |
| 20260506005529 | 51 | 28 | 10.0 | 17.0 | 0.00 | 0.00 | 0.00 | 75 | 1009.7 |
| 20260506005029 | 51 | 36 | 10.0 | 17.0 | 0.00 | 0.00 | 0.00 | 75 | 1009.7 |
| 20260506004556 | 51 | 5 | 9.0 | 17.0 | 0.00 | 0.00 | 0.00 | 75 | 1009.8 |
| 20260506004028 | 51 | 344 | 10.0 | 19.0 | 0.00 | 0.00 | 0.00 | 75 | 1009.4 |
| 20260506003530 | 51 | 352 | 11.0 | 19.0 | 0.00 | 0.00 | 0.00 | 75 | 1009.2 |
| 20260506003038 | 51 | 46 | 10.0 | 18.0 | 0.00 | 0.00 | 0.00 | 75 | 1009.1 |
| 20260506002530 | 52 | 344 | 10.0 | 20.0 | 0.00 | 0.00 | 0.00 | 75 | 1009.2 |
| 20260506002031 | 52 | 25 | 11.0 | 20.0 | 0.00 | 0.00 | 0.00 | 75 | 1009.1 |
| 20260506001545 | 52 | 38 | 9.0 | 17.0 | 0.00 | 0.00 | 0.00 | 75 | 1009.3 |